Location: Auttagershofen
(48.1940°N, 10.0237°E)
Time: 18:55:46
(UTC+00:00)

Meteor 1-24 Rocket - Pass Details

Date: 18 January 2026
Orbit: 790 x 925 km, 81.3° (Epoch: 18 February)

Event Time Altitude Azimuth Distance (km) Brightness Sun altitude
Rises 05:47:52 0° 347° (NNW) 3,576 6.7 -12.3°
Reaches altitude 10° 05:50:22 10° 346° (NNW) 2,635 6.0 -11.9°
Maximum altitude 05:56:24 80° 262° (W) 944 3.9 -11.0°
Drops below altitude 10° 06:02:22 10° 176° (S) 2,599 6.6 -10.0°
Sets 06:04:49 0° 175° (S) 3,524 7.3 -9.7°
